Weather History for OTBD - September, 2010

Change the Weather History Date:

Wednesday, September 29, 2010

  Actual Average Record
Temperature  
Mean Temperature 96 °F -  
Max Temperature 104 °F 95 °F 105 °F (1997)
Min Temperature 88 °F 74 °F 78 °F (2001)
Cooling Degree Days 31    
Growing Degree Days 46 (Base 50)    
Moisture  
Dew Point 74 °F    
Average Humidity 53    
Maximum Humidity 75    
Minimum Humidity 20    
Precipitation  
Precipitation 0.00 in 0.00 in - ()
Sea Level Pressure  
Sea Level Pressure 29.78 in    
Wind  
Wind Speed 4 mph ()    
Max Wind Speed 10 mph    
Max Gust Speed -    
Visibility 2.8 miles    
Events      
Averages and records for this station are not official NWS values.
T = Trace of Precipitation, MM = Missing Value Source: Averaged Metar Reports

Daily Weather History Graph

Daily Weather History Graph

Search for Another Location

Airport or City:

Trip Planner

Search our weather history database for the weather conditions in past years. The results will help you decide how hot, cold, wet, or windy it might be!

Date:

Astronomy

Sep. 29, 2010 Rise Set
Actual Time 5:24 AM AST 5:23 PM AST
Civil Twilight 5:02 AM AST 5:45 PM AST
Nautical Twilight 4:35 AM AST 6:12 PM AST
Astronomical Twilight 4:08 AM AST 6:38 PM AST
Moon 9:24 PM AST (9/29) 10:38 AM AST (9/29)
Length of Visible Light 12h 43m
Length of Day
11h 58m
Waning Gibbous, 69% of the Moon is Illuminated
Sep 29
Waning Gibbous
Oct 1
Last Quarter
Oct 7
New
Oct 15
First Quarter
Oct 23
Full

Hourly Weather History & Observations

Time (AST) Temp. Heat Index Dew Point Humidity Pressure Visibility Wind Dir Wind Speed Gust Speed Precip Events Conditions
12:00 AM 91.4 °F 100.1 °F 73.4 °F 55% 29.77 in 4.3 mi SW 3.5 mph - N/A   Unknown
1:00 AM 89.6 °F 98.2 °F 73.4 °F 59% 29.77 in 4.3 mi Variable 2.3 mph - N/A   Unknown
2:00 AM 89.6 °F 96.2 °F 71.6 °F 55% 29.77 in 3.7 mi SW 3.5 mph - N/A   Unknown
3:00 AM 89 °F - 75 °F 55% 29.77 in 4 mi WSW 3.5 mph - -   Haze
4:00 AM 89.6 °F 102.2 °F 77.0 °F 66% 29.77 in - West 3.5 mph - N/A   Unknown
5:00 AM 89.6 °F 102.2 °F 77.0 °F 66% 29.77 in - WNW 3.5 mph - N/A   Unknown
6:00 AM 89.6 °F 102.2 °F 77.0 °F 66% 29.80 in 3.1 mi Variable 2.3 mph - N/A   Haze
8:00 AM 93.2 °F 105.0 °F 75.2 °F 56% 29.80 in 2.8 mi Variable 2.3 mph - N/A   Unknown
9:00 AM 96 °F - 74 °F 39% 29.82 in 3 mi NW 4.6 mph - -   Widespread Dust
10:00 AM 98.6 °F 107.7 °F 71.6 °F 42% 29.80 in 2.8 mi Variable 2.3 mph - N/A   Unknown
11:00 AM 100.4 °F 107.8 °F 69.8 °F 37% 29.80 in 2.5 mi North 5.8 mph - N/A   Unknown
12:00 PM 100.4 °F 107.8 °F 69.8 °F 37% 29.77 in 2.5 mi North 4.6 mph - N/A   Unknown
1:00 PM 100.4 °F 109.3 °F 71.6 °F 39% 29.74 in 2.5 mi North 8.1 mph - N/A   Unknown
2:00 PM 102.2 °F 105.5 °F 64.4 °F 29% 29.74 in 2.5 mi ENE 3.5 mph - N/A   Unknown
3:00 PM 101 °F - 63 °F 20% 29.75 in 2 mi NE 10.4 mph - -   Widespread Dust
3:00 PM 102.2 °F 104.2 °F 62.6 °F 27% 29.74 in 2.5 mi NE 10.4 mph - N/A   Unknown
4:00 PM 96.8 °F 112.2 °F 77.0 °F 53% 29.74 in 2.2 mi NNE 10.4 mph - N/A   Unknown
5:00 PM 95.0 °F 112.2 °F 78.8 °F 59% 29.77 in 2.2 mi NNE 9.2 mph - N/A   Unknown
6:00 PM 93.2 °F 110.2 °F 78.8 °F 63% 29.77 in 2.5 mi NNE 6.9 mph - N/A   Unknown
7:00 PM 93.2 °F 110.2 °F 78.8 °F 63% 29.77 in 2.5 mi North 8.1 mph - N/A   Unknown
8:00 PM 93.2 °F 117.1 °F 82.4 °F 71% 29.80 in 2.5 mi North 9.2 mph - N/A   Haze
9:00 PM 92 °F - 79 °F 58% 29.82 in 2 mi North 6.9 mph - -   Haze
9:00 PM 91.4 °F 107.2 °F 78.8 °F 66% 29.80 in - North 6.9 mph - N/A   Haze
10:00 PM 91.4 °F 111.0 °F 80.6 °F 71% 29.80 in 2.5 mi North 5.8 mph - N/A   Unknown
11:00 PM 89.6 °F 108.2 °F 80.6 °F 75% 29.80 in 2.5 mi North 5.8 mph - N/A   Unknown